| time (UTC) | temp F | wind direction | speed MPH | gust MPH | rain 1hr in | rain 24hr in | rain mn in | humidity % | barometer mb |
| 20260507221250 | 58 | 15 | 3.0 | 8.0 | 0.00 | 0.00 | 0.00 | 26 | 1004.8 |
| 20260507220746 | 58 | 318 | 6.0 | 9.0 | 0.00 | 0.00 | 0.00 | 25 | 1005.0 |
| 20260507220245 | 58 | 4 | 5.0 | 8.0 | 0.00 | 0.00 | 0.00 | 26 | 1005.2 |
| 20260507215741 | 58 | 240 | 5.0 | 10.0 | 0.00 | 0.00 | 0.00 | 26 | 1005.1 |
| 20260507215238 | 57 | 298 | 6.0 | 21.0 | 0.00 | 0.00 | 0.00 | 27 | 1004.9 |
| 20260507214735 | 57 | 78 | 0.0 | 9.0 | 0.00 | 0.00 | 0.00 | 27 | 1004.9 |
| 20260507214233 | 57 | 0 | 2.0 | 14.0 | 0.00 | 0.00 | 0.00 | 28 | 1005.1 |
| 20260507213727 | 58 | 336 | 4.0 | 13.0 | 0.00 | 0.00 | 0.00 | 25 | 1005.1 |
| 20260507213225 | 57 | 228 | 1.0 | 9.0 | 0.00 | 0.00 | 0.00 | 25 | 1004.9 |
| 20260507212721 | 58 | 288 | 6.0 | 12.0 | 0.00 | 0.00 | 0.00 | 26 | 1005.2 |
| 20260507212218 | 57 | 345 | 4.0 | 9.0 | 0.00 | 0.00 | 0.00 | 26 | 1005.1 |
| 20260507211715 | 56 | 29 | 2.0 | 9.0 | 0.00 | 0.00 | 0.00 | 28 | 1005.0 |
| 20260507211210 | 57 | 154 | 2.0 | 12.0 | 0.00 | 0.00 | 0.00 | 26 | 1005.0 |
| 20260507210708 | 58 | 298 | 3.0 | 10.0 | 0.00 | 0.00 | 0.00 | 27 | 1005.1 |
| 20260507210205 | 56 | 30 | 8.0 | 12.0 | 0.00 | 0.00 | 0.00 | 28 | 1005.1 |
| 20260507205701 | 57 | 339 | 4.0 | 11.0 | 0.00 | 0.00 | 0.00 | 27 | 1005.1 |
| 20260507205158 | 57 | 291 | 4.0 | 10.0 | 0.00 | 0.00 | 0.00 | 29 | 1005.2 |
| 20260507204654 | 57 | 293 | 5.0 | 12.0 | 0.00 | 0.00 | 0.00 | 28 | 1005.1 |
| 20260507204152 | 57 | 317 | 16.0 | 19.0 | 0.00 | 0.00 | 0.00 | 27 | 1005.5 |
| 20260507203650 | 57 | 332 | 1.0 | 16.0 | 0.00 | 0.00 | 0.00 | 30 | 1005.5 |
| 20260507203147 | 56 | 253 | 5.0 | 13.0 | 0.00 | 0.00 | 0.00 | 29 | 1005.4 |
| 20260507202642 | 56 | 1 | 7.0 | 15.0 | 0.00 | 0.00 | 0.00 | 29 | 1005.5 |
| 20260507202139 | 56 | 207 | 3.0 | 15.0 | 0.00 | 0.00 | 0.00 | 28 | 1005.6 |
| 20260507201634 | 55 | 67 | 1.0 | 13.0 | 0.00 | 0.00 | 0.00 | 29 | 1005.2 |
| 20260507201131 | 56 | 334 | 4.0 | 15.0 | 0.00 | 0.00 | 0.00 | 28 | 1005.6 |
| 20260507200627 | 55 | 357 | 6.0 | 18.0 | 0.00 | 0.00 | 0.00 | 29 | 1005.5 |
| 20260507200123 | 57 | 353 | 4.0 | 10.0 | 0.00 | 0.00 | 0.00 | 28 | 1005.7 |
| 20260507195620 | 54 | 30 | 6.0 | 13.0 | 0.00 | 0.00 | 0.00 | 29 | 1005.7 |
| 20260507195117 | 57 | 302 | 10.0 | 16.0 | 0.00 | 0.00 | 0.00 | 28 | 1005.8 |
| 20260507194614 | 56 | 144 | 3.0 | 17.0 | 0.00 | 0.00 | 0.00 | 30 | 1005.9 |
| 20260507194109 | 57 | 122 | 2.0 | 4.0 | 0.00 | 0.00 | 0.00 | 28 | 1005.8 |
| 20260507193607 | 56 | 10 | 4.0 | 15.0 | 0.00 | 0.00 | 0.00 | 30 | 1006.0 |
| 20260507193104 | 56 | 248 | 3.0 | 14.0 | 0.00 | 0.00 | 0.00 | 28 | 1005.9 |
| 20260507192600 | 55 | 346 | 4.0 | 18.0 | 0.00 | 0.00 | 0.00 | 29 | 1005.9 |
| 20260507192057 | 55 | 15 | 15.0 | 15.0 | 0.00 | 0.00 | 0.00 | 31 | 1005.9 |
| 20260507191552 | 55 | 230 | 7.0 | 11.0 | 0.00 | 0.00 | 0.00 | 30 | 1005.8 |
| 20260507191050 | 55 | 336 | 4.0 | 14.0 | 0.00 | 0.00 | 0.00 | 29 | 1006.0 |
| 20260507190547 | 54 | 19 | 6.0 | 18.0 | 0.00 | 0.00 | 0.00 | 29 | 1006.1 |
| 20260507190045 | 54 | 196 | 0.0 | 13.0 | 0.00 | 0.00 | 0.00 | 33 | 1006.1 |
| 20260507185543 | 55 | 53 | 0.0 | 15.0 | 0.00 | 0.00 | 0.00 | 31 | 1006.0 |
| 20260507185039 | 55 | 338 | 5.0 | 18.0 | 0.00 | 0.00 | 0.00 | 31 | 1006.0 |
| 20260507184538 | 53 | 358 | 4.0 | 17.0 | 0.00 | 0.00 | 0.00 | 32 | 1005.6 |
| 20260507184035 | 53 | 296 | 2.0 | 15.0 | 0.00 | 0.00 | 0.00 | 33 | 1006.0 |
| 20260507183531 | 56 | 156 | 0.0 | 5.0 | 0.00 | 0.00 | 0.00 | 32 | 1006.0 |
| 20260507183028 | 54 | 228 | 3.0 | 11.0 | 0.00 | 0.00 | 0.00 | 34 | 1006.3 |
| 20260507182525 | 54 | 39 | 2.0 | 12.0 | 0.00 | 0.00 | 0.00 | 32 | 1006.2 |
| 20260507182021 | 53 | 340 | 7.0 | 20.0 | 0.00 | 0.00 | 0.00 | 32 | 1006.3 |
| 20260507181518 | 53 | 263 | 7.0 | 18.0 | 0.00 | 0.00 | 0.00 | 33 | 1006.3 |
| 20260507181014 | 53 | 325 | 6.0 | 15.0 | 0.00 | 0.00 | 0.00 | 34 | 1006.2 |
| 20260507180510 | 53 | 261 | 4.0 | 15.0 | 0.00 | 0.00 | 0.00 | 33 | 1006.1 |
| 20260507180008 | 52 | 3 | 6.0 | 13.0 | 0.00 | 0.00 | 0.00 | 37 | 1006.4 |
| 20260507175504 | 53 | 326 | 4.0 | 14.0 | 0.00 | 0.00 | 0.00 | 34 | 1006.5 |
| 20260507175001 | 53 | 124 | 4.0 | 14.0 | 0.00 | 0.00 | 0.00 | 36 | 1006.4 |
| 20260507174458 | 52 | 344 | 5.0 | 13.0 | 0.00 | 0.00 | 0.00 | 34 | 1006.4 |
| 20260507173956 | 52 | 14 | 4.0 | 19.0 | 0.00 | 0.00 | 0.00 | 35 | 1006.7 |
| 20260507173453 | 52 | 152 | 1.0 | 11.0 | 0.00 | 0.00 | 0.00 | 37 | 1006.5 |
| 20260507172950 | 53 | 144 | 2.0 | 12.0 | 0.00 | 0.00 | 0.00 | 37 | 1006.6 |
| 20260507172446 | 52 | 345 | 3.0 | 11.0 | 0.00 | 0.00 | 0.00 | 35 | 1006.6 |
| 20260507171943 | 52 | 350 | 4.0 | 13.0 | 0.00 | 0.00 | 0.00 | 37 | 1006.6 |
| 20260507171438 | 52 | 8 | 3.0 | 11.0 | 0.00 | 0.00 | 0.00 | 37 | 1006.6 |
| 20260507170936 | 51 | 24 | 7.0 | 10.0 | 0.00 | 0.00 | 0.00 | 39 | 1006.8 |
| 20260507170432 | 50 | 8 | 3.0 | 18.0 | 0.00 | 0.00 | 0.00 | 40 | 1006.7 |
| 20260507165929 | 52 | 40 | 4.0 | 12.0 | 0.00 | 0.00 | 0.00 | 41 | 1006.4 |
| 20260507165425 | 52 | 331 | 4.0 | 10.0 | 0.00 | 0.00 | 0.00 | 39 | 1006.7 |
| 20260507164920 | 49 | 29 | 9.0 | 14.0 | 0.00 | 0.00 | 0.00 | 43 | 1006.9 |
| 20260507164418 | 51 | 359 | 10.0 | 12.0 | 0.00 | 0.00 | 0.00 | 41 | 1007.0 |
| 20260507163915 | 50 | 80 | 1.0 | 16.0 | 0.00 | 0.00 | 0.00 | 41 | 1007.1 |
| 20260507163412 | 50 | 28 | 4.0 | 12.0 | 0.00 | 0.00 | 0.00 | 41 | 1006.9 |
| 20260507162909 | 51 | 320 | 7.0 | 13.0 | 0.00 | 0.00 | 0.00 | 41 | 1007.0 |
| 20260507162404 | 50 | 306 | 4.0 | 15.0 | 0.00 | 0.00 | 0.00 | 41 | 1007.0 |
| 20260507161902 | 50 | 355 | 5.0 | 9.0 | 0.00 | 0.00 | 0.00 | 43 | 1007.1 |
| 20260507161358 | 50 | 204 | 4.0 | 12.0 | 0.00 | 0.00 | 0.00 | 46 | 1007.1 |
| 20260507160855 | 49 | 282 | 2.0 | 8.0 | 0.00 | 0.00 | 0.00 | 46 | 1007.2 |
| 20260507160350 | 50 | 21 | 3.0 | 16.0 | 0.00 | 0.00 | 0.00 | 46 | 1007.2 |
| 20260507155847 | 50 | 28 | 6.0 | 12.0 | 0.00 | 0.00 | 0.00 | 46 | 1007.4 |
| 20260507155342 | 50 | 57 | 3.0 | 7.0 | 0.00 | 0.00 | 0.00 | 48 | 1007.2 |
| 20260507154839 | 50 | 111 | 2.0 | 5.0 | 0.00 | 0.00 | 0.00 | 46 | 1007.2 |
| 20260507154337 | 48 | 324 | 3.0 | 10.0 | 0.00 | 0.00 | 0.00 | 49 | 1007.2 |
| 20260507153834 | 49 | 19 | 4.0 | 8.0 | 0.00 | 0.00 | 0.00 | 48 | 1007.2 |
| 20260507153330 | 49 | 343 | 6.0 | 13.0 | 0.00 | 0.00 | 0.00 | 47 | 1007.3 |
| 20260507152827 | 49 | 298 | 1.0 | 8.0 | 0.00 | 0.00 | 0.00 | 49 | 1007.0 |
| 20260507152323 | 48 | 299 | 5.0 | 11.0 | 0.00 | 0.00 | 0.00 | 48 | 1007.5 |
| 20260507151819 | 48 | 355 | 3.0 | 7.0 | 0.00 | 0.00 | 0.00 | 50 | 1007.3 |
| 20260507151315 | 48 | 26 | 4.0 | 8.0 | 0.00 | 0.00 | 0.00 | 52 | 1007.3 |
| 20260507150813 | 49 | 128 | 1.0 | 8.0 | 0.00 | 0.00 | 0.00 | 49 | 1007.2 |
| 20260507150309 | 47 | 42 | 4.0 | 8.0 | 0.00 | 0.00 | 0.00 | 52 | 1007.4 |
| 20260507145805 | 46 | 20 | 6.0 | 9.0 | 0.00 | 0.00 | 0.00 | 53 | 1007.6 |
| 20260507145306 | 46 | 14 | 7.0 | 12.0 | 0.00 | 0.00 | 0.00 | 54 | 1007.4 |
| 20260507144759 | 46 | 80 | 5.0 | 9.0 | 0.00 | 0.00 | 0.00 | 53 | 1007.6 |
| 20260507144256 | 45 | 0 | 4.0 | 9.0 | 0.00 | 0.00 | 0.00 | 56 | 1007.6 |
| 20260507143752 | 45 | 20 | 5.0 | 10.0 | 0.00 | 0.00 | 0.00 | 55 | 1007.6 |
| 20260507143250 | 46 | 9 | 3.0 | 16.0 | 0.00 | 0.00 | 0.00 | 55 | 1007.6 |
| 20260507142746 | 46 | 352 | 3.0 | 9.0 | 0.00 | 0.00 | 0.00 | 53 | 1007.4 |
| 20260507142243 | 46 | 308 | 11.0 | 11.0 | 0.00 | 0.00 | 0.00 | 54 | 1007.7 |
| 20260507141739 | 46 | 56 | 4.0 | 14.0 | 0.00 | 0.00 | 0.00 | 57 | 1007.8 |
| 20260507141236 | 48 | 11 | 7.0 | 15.0 | 0.00 | 0.00 | 0.00 | 56 | 1007.9 |
| 20260507140732 | 48 | 114 | 4.0 | 16.0 | 0.00 | 0.00 | 0.00 | 56 | 1007.7 |
| 20260507140230 | 48 | 251 | 1.0 | 8.0 | 0.00 | 0.00 | 0.00 | 59 | 1007.9 |
| 20260507135727 | 48 | 55 | 1.0 | 4.0 | 0.00 | 0.00 | 0.00 | 60 | 1007.9 |
| 20260507135224 | 48 | 255 | 3.0 | 7.0 | 0.00 | 0.00 | 0.00 | 59 | 1007.9 |
| 20260507134720 | 47 | 74 | 2.0 | 7.0 | 0.00 | 0.00 | 0.00 | 61 | 1007.9 |
| 20260507134217 | 47 | 192 | 2.0 | 6.0 | 0.00 | 0.00 | 0.00 | 64 | 1007.9 |
| 20260507133713 | 46 | 331 | 5.0 | 10.0 | 0.00 | 0.00 | 0.00 | 64 | 1007.9 |
| 20260507133210 | 46 | 240 | 2.0 | 8.0 | 0.00 | 0.00 | 0.00 | 65 | 1008.1 |
| 20260507132707 | 46 | 234 | 2.0 | 8.0 | 0.00 | 0.00 | 0.00 | 65 | 1007.9 |
| 20260507132203 | 45 | 208 | 3.0 | 4.0 | 0.00 | 0.00 | 0.00 | 66 | 1008.2 |
| 20260507131700 | 45 | 308 | 1.0 | 5.0 | 0.00 | 0.00 | 0.00 | 68 | 1008.0 |
| 20260507131158 | 44 | 242 | 2.0 | 9.0 | 0.00 | 0.00 | 0.00 | 67 | 1007.9 |
| 20260507130654 | 44 | 48 | 0.0 | 5.0 | 0.00 | 0.00 | 0.00 | 69 | 1008.2 |
| 20260507130152 | 44 | 267 | 1.0 | 3.0 | 0.00 | 0.00 | 0.00 | 68 | 1008.1 |
| 20260507125651 | 43 | 246 | 0.0 | 4.0 | 0.00 | 0.00 | 0.00 | 69 | 1008.1 |
| 20260507125148 | 41 | 228 | 0.0 | 3.0 | 0.00 | 0.00 | 0.00 | 71 | 1008.2 |
| 20260507124644 | 41 | 281 | 2.0 | 2.0 | 0.00 | 0.00 | 0.00 | 69 | 1008.1 |
| 20260507124142 | 41 | 218 | 0.0 | 3.0 | 0.00 | 0.00 | 0.00 | 65 | 1008.3 |
| 20260507123640 | 41 | 247 | 1.0 | 5.0 | 0.00 | 0.00 | 0.00 | 65 | 1008.2 |
| 20260507123137 | 41 | 255 | 2.0 | 5.0 | 0.00 | 0.00 | 0.00 | 64 | 1008.2 |
| 20260507122632 | 41 | 274 | 2.0 | 2.0 | 0.00 | 0.00 | 0.00 | 66 | 1008.2 |
| 20260507122128 | 41 | 297 | 1.0 | 4.0 | 0.00 | 0.00 | 0.00 | 68 | 1007.9 |
| 20260507121624 | 39 | 254 | 0.0 | 3.0 | 0.00 | 0.00 | 0.00 | 70 | 1008.0 |
| 20260507121120 | 38 | 232 | 4.0 | 7.0 | 0.00 | 0.00 | 0.00 | 68 | 1008.1 |
| 20260507120616 | 37 | 207 | 3.0 | 6.0 | 0.00 | 0.00 | 0.00 | 70 | 1007.8 |
| 20260507120113 | 37 | 225 | 2.0 | 5.0 | 0.00 | 0.00 | 0.00 | 70 | 1007.8 |
| 20260507115609 | 37 | 254 | 1.0 | 4.0 | 0.00 | 0.00 | 0.00 | 71 | 1007.9 |
| 20260507115105 | 37 | 215 | 3.0 | 6.0 | 0.00 | 0.00 | 0.00 | 71 | 1007.9 |
| 20260507114601 | 37 | 223 | 4.0 | 6.0 | 0.00 | 0.00 | 0.00 | 71 | 1007.9 |
| 20260507114059 | 36 | 206 | 3.0 | 5.0 | 0.00 | 0.00 | 0.00 | 71 | 1008.1 |
| 20260507113555 | 36 | 202 | 2.0 | 5.0 | 0.00 | 0.00 | 0.00 | 71 | 1007.7 |
| 20260507113053 | 36 | 294 | 1.0 | 5.0 | 0.00 | 0.00 | 0.00 | 73 | 1007.8 |
| 20260507112551 | 36 | 249 | 2.0 | 4.0 | 0.00 | 0.00 | 0.00 | 72 | 1007.9 |
| 20260507112047 | 35 | 221 | 2.0 | 5.0 | 0.00 | 0.00 | 0.00 | 73 | 1007.8 |
| 20260507111544 | 35 | 227 | 1.0 | 4.0 | 0.00 | 0.00 | 0.00 | 74 | 1007.8 |
| 20260507111041 | 34 | 222 | 3.0 | 4.0 | 0.00 | 0.00 | 0.00 | 75 | 1007.7 |
| 20260507110537 | 34 | 215 | 2.0 | 4.0 | 0.00 | 0.00 | 0.00 | 75 | 1008.0 |
| 20260507110034 | 33 | 220 | 2.0 | 4.0 | 0.00 | 0.00 | 0.00 | 76 | 1007.7 |
| 20260507105531 | 33 | 195 | 0.0 | 4.0 | 0.00 | 0.00 | 0.00 | 76 | 1007.9 |
| 20260507105026 | 33 | 217 | 3.0 | 5.0 | 0.00 | 0.00 | 0.00 | 76 | 1007.9 |
| 20260507104524 | 33 | 233 | 2.0 | 4.0 | 0.00 | 0.00 | 0.00 | 76 | 1007.9 |
| 20260507104021 | 33 | 197 | 2.0 | 3.0 | 0.00 | 0.00 | 0.00 | 76 | 1007.9 |
| 20260507103517 | 33 | 236 | 2.0 | 4.0 | 0.00 | 0.00 | 0.00 | 76 | 1007.7 |
| 20260507103013 | 33 | 193 | 3.0 | 5.0 | 0.00 | 0.00 | 0.00 | 76 | 1007.6 |
| 20260507102510 | 33 | 201 | 3.0 | 7.0 | 0.00 | 0.00 | 0.00 | 76 | 1007.9 |
| 20260507102007 | 34 | 195 | 3.0 | 5.0 | 0.00 | 0.00 | 0.00 | 75 | 1007.7 |
| 20260507101502 | 34 | 200 | 3.0 | 7.0 | 0.00 | 0.00 | 0.00 | 75 | 1007.7 |
| 20260507100958 | 34 | 224 | 3.0 | 5.0 | 0.00 | 0.00 | 0.00 | 75 | 1008.1 |
| 20260507100450 | 34 | 206 | 3.0 | 5.0 | 0.00 | 0.00 | 0.00 | 74 | 1008.1 |
| 20260507095948 | 34 | 236 | 2.0 | 4.0 | 0.00 | 0.00 | 0.00 | 75 | 1008.0 |
| 20260507095445 | 34 | 213 | 3.0 | 4.0 | 0.00 | 0.00 | 0.00 | 75 | 1008.1 |
| 20260507094942 | 34 | 215 | 4.0 | 5.0 | 0.00 | 0.00 | 0.00 | 75 | 1008.0 |
| 20260507094438 | 34 | 212 | 4.0 | 5.0 | 0.00 | 0.00 | 0.00 | 75 | 1008.1 |
| 20260507093935 | 34 | 195 | 5.0 | 5.0 | 0.00 | 0.00 | 0.00 | 75 | 1008.1 |
| 20260507093433 | 34 | 215 | 2.0 | 5.0 | 0.00 | 0.00 | 0.00 | 74 | 1008.0 |
| 20260507092931 | 34 | 210 | 3.0 | 6.0 | 0.00 | 0.00 | 0.00 | 74 | 1007.9 |
| 20260507092427 | 34 | 203 | 5.0 | 6.0 | 0.00 | 0.00 | 0.00 | 74 | 1008.1 |
| 20260507091924 | 33 | 204 | 5.0 | 7.0 | 0.00 | 0.00 | 0.00 | 76 | 1007.7 |
| 20260507091421 | 33 | 188 | 3.0 | 4.0 | 0.00 | 0.00 | 0.00 | 77 | 1007.9 |
| 20260507090916 | 33 | 180 | 2.0 | 3.0 | 0.00 | 0.00 | 0.00 | 76 | 1008.1 |
| 20260507090413 | 33 | 198 | 3.0 | 4.0 | 0.00 | 0.00 | 0.00 | 77 | 1008.0 |
| 20260507085909 | 33 | 200 | 3.0 | 4.0 | 0.00 | 0.00 | 0.00 | 77 | 1008.1 |
| 20260507085406 | 33 | 188 | 3.0 | 4.0 | 0.00 | 0.00 | 0.00 | 77 | 1008.2 |
| 20260507084904 | 33 | 188 | 2.0 | 4.0 | 0.00 | 0.00 | 0.00 | 78 | 1008.6 |
| 20260507084400 | 33 | 199 | 2.0 | 4.0 | 0.00 | 0.00 | 0.00 | 77 | 1008.6 |
| 20260507083857 | 33 | 182 | 3.0 | 4.0 | 0.00 | 0.00 | 0.00 | 77 | 1008.5 |
| 20260507083354 | 33 | 193 | 3.0 | 5.0 | 0.00 | 0.00 | 0.00 | 76 | 1008.6 |
| 20260507082850 | 33 | 195 | 3.0 | 5.0 | 0.00 | 0.00 | 0.00 | 76 | 1008.1 |
| 20260507082345 | 33 | 196 | 3.0 | 4.0 | 0.00 | 0.00 | 0.00 | 76 | 1008.5 |
| 20260507081843 | 33 | 204 | 3.0 | 4.0 | 0.00 | 0.00 | 0.00 | 76 | 1008.3 |
| 20260507081339 | 33 | 199 | 2.0 | 3.0 | 0.00 | 0.00 | 0.00 | 76 | 1008.7 |
| 20260507080836 | 34 | 192 | 3.0 | 4.0 | 0.00 | 0.00 | 0.00 | 75 | 1008.6 |
| 20260507080332 | 34 | 195 | 3.0 | 4.0 | 0.00 | 0.00 | 0.00 | 75 | 1008.2 |
| 20260507075828 | 34 | 207 | 3.0 | 5.0 | 0.00 | 0.00 | 0.00 | 74 | 1008.6 |
| 20260507075324 | 34 | 206 | 3.0 | 4.0 | 0.00 | 0.00 | 0.00 | 74 | 1008.3 |
| 20260507074820 | 34 | 191 | 3.0 | 4.0 | 0.00 | 0.00 | 0.00 | 74 | 1008.6 |
| 20260507074318 | 34 | 205 | 3.0 | 4.0 | 0.00 | 0.00 | 0.00 | 74 | 1008.9 |
| 20260507073815 | 35 | 204 | 3.0 | 4.0 | 0.00 | 0.00 | 0.00 | 73 | 1008.8 |
| 20260507073312 | 35 | 201 | 2.0 | 4.0 | 0.00 | 0.00 | 0.00 | 72 | 1008.7 |
| 20260507072809 | 35 | 199 | 3.0 | 6.0 | 0.00 | 0.00 | 0.00 | 72 | 1008.8 |
| 20260507072308 | 35 | 212 | 3.0 | 7.0 | 0.00 | 0.00 | 0.00 | 72 | 1008.8 |
| 20260507071804 | 35 | 207 | 3.0 | 4.0 | 0.00 | 0.00 | 0.00 | 73 | 1008.7 |
| 20260507071300 | 35 | 196 | 3.0 | 5.0 | 0.00 | 0.00 | 0.00 | 73 | 1008.7 |
| 20260507070757 | 35 | 199 | 3.0 | 4.0 | 0.00 | 0.00 | 0.00 | 74 | 1009.0 |
| 20260507070254 | 35 | 201 | 3.0 | 5.0 | 0.00 | 0.00 | 0.00 | 73 | 1009.2 |
| 20260507065751 | 35 | 205 | 5.0 | 7.0 | 0.00 | 0.00 | 0.00 | 73 | 1009.2 |
| 20260507065247 | 35 | 210 | 3.0 | 5.0 | 0.00 | 0.00 | 0.00 | 74 | 1009.1 |
| 20260507064744 | 34 | 197 | 2.0 | 3.0 | 0.00 | 0.00 | 0.00 | 75 | 1009.1 |
| 20260507064243 | 35 | 208 | 3.0 | 5.0 | 0.00 | 0.00 | 0.00 | 74 | 1009.0 |
| 20260507063740 | 35 | 205 | 2.0 | 4.0 | 0.00 | 0.00 | 0.00 | 73 | 1008.9 |
| 20260507063237 | 35 | 201 | 3.0 | 5.0 | 0.00 | 0.00 | 0.00 | 73 | 1009.1 |
| 20260507062734 | 35 | 199 | 2.0 | 3.0 | 0.00 | 0.00 | 0.00 | 73 | 1009.0 |
| 20260507062231 | 35 | 204 | 3.0 | 4.0 | 0.00 | 0.00 | 0.00 | 73 | 1009.3 |
| 20260507061730 | 35 | 234 | 1.0 | 3.0 | 0.00 | 0.00 | 0.00 | 73 | 1009.2 |
| 20260507061227 | 35 | 194 | 3.0 | 4.0 | 0.00 | 0.00 | 0.00 | 72 | 1009.3 |
| 20260507060725 | 35 | 197 | 3.0 | 3.0 | 0.00 | 0.00 | 0.00 | 73 | 1009.2 |
| 20260507060221 | 35 | 220 | 1.0 | 3.0 | 0.00 | 0.00 | 0.00 | 73 | 1009.2 |
| 20260507055718 | 35 | 197 | 2.0 | 2.0 | 0.00 | 0.00 | 0.00 | 73 | 1009.3 |
| 20260507055213 | 35 | 200 | 2.0 | 3.0 | 0.00 | 0.00 | 0.00 | 73 | 1009.2 |
| 20260507054709 | 35 | 211 | 3.0 | 4.0 | 0.00 | 0.00 | 0.00 | 72 | 1009.2 |
| 20260507054207 | 35 | 210 | 4.0 | 4.0 | 0.00 | 0.00 | 0.00 | 73 | 1009.6 |
| 20260507053704 | 35 | 204 | 4.0 | 5.0 | 0.00 | 0.00 | 0.00 | 73 | 1009.4 |
| 20260507053202 | 35 | 206 | 3.0 | 5.0 | 0.00 | 0.00 | 0.00 | 73 | 1009.4 |
| 20260507052701 | 35 | 205 | 3.0 | 5.0 | 0.00 | 0.00 | 0.00 | 72 | 1009.6 |
| 20260507052156 | 35 | 198 | 3.0 | 5.0 | 0.00 | 0.00 | 0.00 | 73 | 1009.5 |
| 20260507051654 | 35 | 210 | 4.0 | 4.0 | 0.00 | 0.00 | 0.00 | 73 | 1009.5 |
| 20260507051150 | 35 | 201 | 3.0 | 4.0 | 0.00 | 0.00 | 0.00 | 74 | 1009.5 |
| 20260507050647 | 34 | 192 | 2.0 | 4.0 | 0.00 | 0.00 | 0.00 | 74 | 1009.6 |
| 20260507050144 | 34 | 183 | 1.0 | 3.0 | 0.00 | 0.00 | 0.00 | 74 | 1009.4 |
| 20260507045641 | 34 | 183 | 2.0 | 3.0 | 0.00 | 0.00 | 0.00 | 74 | 1009.6 |
| 20260507045137 | 34 | 192 | 0.0 | 2.0 | 0.00 | 0.00 | 0.00 | 74 | 1009.6 |
| 20260507044635 | 34 | 183 | 2.0 | 2.0 | 0.00 | 0.00 | 0.00 | 74 | 1009.6 |
| 20260507044131 | 34 | 197 | 1.0 | 2.0 | 0.00 | 0.00 | 0.00 | 73 | 1009.5 |
| 20260507043627 | 35 | 195 | 0.0 | 2.0 | 0.00 | 0.00 | 0.00 | 73 | 1009.5 |
| 20260507043124 | 34 | 181 | 0.0 | 2.0 | 0.00 | 0.00 | 0.00 | 74 | 1009.7 |
| 20260507042621 | 34 | 177 | 1.0 | 1.0 | 0.00 | 0.00 | 0.00 | 74 | 1009.7 |
| 20260507042115 | 34 | 170 | 0.0 | 1.0 | 0.00 | 0.00 | 0.00 | 74 | 1009.9 |
| 20260507041612 | 34 | 199 | 0.0 | 1.0 | 0.00 | 0.00 | 0.00 | 74 | 1009.8 |
| 20260507041104 | 34 | 224 | 0.0 | 0.0 | 0.00 | 0.00 | 0.00 | 74 | 1009.8 |
| 20260507040601 | 35 | 205 | 0.0 | 2.0 | 0.00 | 0.00 | 0.00 | 73 | 1009.8 |
| 20260507040057 | 35 | 240 | 0.0 | 2.0 | 0.00 | 0.00 | 0.00 | 73 | 1009.8 |
| 20260507035553 | 35 | 168 | 0.0 | 1.0 | 0.00 | 0.00 | 0.00 | 73 | 1009.9 |
| 20260507035049 | 35 | 205 | 1.0 | 3.0 | 0.00 | 0.00 | 0.00 | 73 | 1010.0 |
| 20260507034546 | 35 | 333 | 0.0 | 1.0 | 0.00 | 0.00 | 0.00 | 72 | 1010.1 |
| 20260507034044 | 35 | 286 | 0.0 | 2.0 | 0.00 | 0.00 | 0.00 | 72 | 1010.1 |
| 20260507033542 | 35 | 191 | 0.0 | 1.0 | 0.00 | 0.00 | 0.00 | 74 | 1009.7 |
| 20260507033039 | 35 | 206 | 0.0 | 2.0 | 0.00 | 0.00 | 0.00 | 74 | 1010.0 |
| 20260507032536 | 35 | 209 | 0.0 | 1.0 | 0.00 | 0.00 | 0.00 | 73 | 1010.1 |
| 20260507032032 | 35 | 333 | 0.0 | 2.0 | 0.00 | 0.00 | 0.00 | 74 | 1010.0 |
| 20260507031528 | 35 | 211 | 1.0 | 1.0 | 0.00 | 0.00 | 0.00 | 74 | 1010.0 |
| 20260507031026 | 35 | 110 | 0.0 | 1.0 | 0.00 | 0.00 | 0.00 | 72 | 1010.2 |
| 20260507030522 | 36 | 212 | 0.0 | 2.0 | 0.00 | 0.00 | 0.00 | 71 | 1010.2 |
| 20260507030021 | 36 | 322 | 0.0 | 2.0 | 0.00 | 0.00 | 0.00 | 71 | 1010.2 |
| 20260507025517 | 37 | 208 | 0.0 | 2.0 | 0.00 | 0.00 | 0.00 | 69 | 1010.2 |
| 20260507025015 | 37 | 216 | 0.0 | 2.0 | 0.00 | 0.00 | 0.00 | 69 | 1010.5 |
| 20260507024512 | 37 | 223 | 0.0 | 2.0 | 0.00 | 0.00 | 0.00 | 69 | 1010.5 |
| 20260507024009 | 36 | 220 | 0.0 | 2.0 | 0.00 | 0.00 | 0.00 | 70 | 1010.1 |
| 20260507023505 | 36 | 22 | 0.0 | 1.0 | 0.00 | 0.00 | 0.00 | 70 | 1010.2 |
| 20260507023003 | 37 | 329 | 0.0 | 1.0 | 0.00 | 0.00 | 0.00 | 67 | 1010.2 |
| 20260507022459 | 37 | 219 | 1.0 | 2.0 | 0.00 | 0.00 | 0.00 | 67 | 1010.3 |
| 20260507021954 | 37 | 201 | 0.0 | 2.0 | 0.00 | 0.00 | 0.00 | 70 | 1010.2 |
| 20260507021450 | 37 | 321 | 0.0 | 1.0 | 0.00 | 0.00 | 0.00 | 69 | 1010.3 |
| 20260507020947 | 37 | 174 | 0.0 | 2.0 | 0.00 | 0.00 | 0.00 | 68 | 1010.5 |
| 20260507020444 | 37 | 285 | 0.0 | 2.0 | 0.00 | 0.00 | 0.00 | 67 | 1010.5 |
| 20260507015941 | 38 | 5 | 1.0 | 2.0 | 0.00 | 0.00 | 0.00 | 66 | 1010.5 |
| 20260507015440 | 39 | 311 | 0.0 | 3.0 | 0.00 | 0.00 | 0.00 | 64 | 1010.4 |
| 20260507014936 | 40 | 346 | 2.0 | 3.0 | 0.00 | 0.00 | 0.00 | 61 | 1010.5 |
| 20260507014433 | 40 | 306 | 2.0 | 4.0 | 0.00 | 0.00 | 0.00 | 61 | 1010.5 |
| 20260507013929 | 40 | 350 | 1.0 | 4.0 | 0.00 | 0.00 | 0.00 | 61 | 1010.4 |
| 20260507013426 | 40 | 331 | 0.0 | 3.0 | 0.00 | 0.00 | 0.00 | 61 | 1010.3 |
| 20260507012924 | 40 | 344 | 2.0 | 3.0 | 0.00 | 0.00 | 0.00 | 61 | 1010.2 |
| 20260507012420 | 41 | 6 | 2.0 | 4.0 | 0.00 | 0.00 | 0.00 | 61 | 1010.3 |
| 20260507011916 | 41 | 4 | 4.0 | 5.0 | 0.00 | 0.00 | 0.00 | 60 | 1010.4 |
| 20260507011413 | 41 | 0 | 3.0 | 4.0 | 0.00 | 0.00 | 0.00 | 59 | 1010.3 |
| 20260507010908 | 42 | 333 | 2.0 | 4.0 | 0.00 | 0.00 | 0.00 | 58 | 1010.2 |
| 20260507010403 | 42 | 323 | 2.0 | 6.0 | 0.00 | 0.00 | 0.00 | 57 | 1010.3 |
| 20260507005900 | 42 | 314 | 2.0 | 6.0 | 0.00 | 0.00 | 0.00 | 58 | 1010.2 |
| 20260507005356 | 42 | 329 | 2.0 | 6.0 | 0.00 | 0.00 | 0.00 | 56 | 1010.3 |
| 20260507004848 | 42 | 264 | 0.0 | 5.0 | 0.00 | 0.00 | 0.00 | 56 | 1010.2 |
| 20260507004345 | 43 | 5 | 3.0 | 6.0 | 0.00 | 0.00 | 0.00 | 56 | 1010.2 |
| 20260507003843 | 43 | 283 | 3.0 | 8.0 | 0.00 | 0.00 | 0.00 | 54 | 1010.1 |
| 20260507003338 | 44 | 313 | 7.0 | 9.0 | 0.00 | 0.00 | 0.00 | 54 | 1010.1 |
| 20260507002833 | 44 | 339 | 3.0 | 11.0 | 0.00 | 0.00 | 0.00 | 54 | 1010.1 |
| 20260507002329 | 44 | 336 | 2.0 | 9.0 | 0.00 | 0.00 | 0.00 | 53 | 1010.1 |
| 20260507001827 | 45 | 23 | 3.0 | 9.0 | 0.00 | 0.00 | 0.00 | 52 | 1010.2 |
| 20260507001324 | 44 | 312 | 3.0 | 10.0 | 0.00 | 0.00 | 0.00 | 52 | 1010.3 |
| 20260507000820 | 44 | 200 | 2.0 | 9.0 | 0.00 | 0.00 | 0.00 | 53 | 1010.2 |
| 20260507000316 | 44 | 326 | 4.0 | 8.0 | 0.00 | 0.00 | 0.00 | 52 | 1010.4 |
| 20260506235812 | 44 | 104 | 1.0 | 8.0 | 0.00 | 0.00 | 0.00 | 53 | 1010.3 |
| 20260506235309 | 44 | 339 | 3.0 | 11.0 | 0.00 | 0.00 | 0.00 | 52 | 1010.2 |
| 20260506234805 | 44 | 342 | 5.0 | 9.0 | 0.00 | 0.00 | 0.00 | 51 | 1010.2 |
| 20260506234303 | 45 | 0 | 8.0 | 14.0 | 0.00 | 0.00 | 0.00 | 50 | 1010.1 |
| 20260506233800 | 45 | 298 | 6.0 | 12.0 | 0.00 | 0.00 | 0.00 | 51 | 1010.2 |
| 20260506233256 | 44 | 335 | 4.0 | 12.0 | 0.00 | 0.00 | 0.00 | 50 | 1010.2 |
| 20260506232753 | 45 | 343 | 7.0 | 16.0 | 0.00 | 0.00 | 0.00 | 50 | 1010.2 |
| 20260506232248 | 45 | 313 | 4.0 | 11.0 | 0.00 | 0.00 | 0.00 | 50 | 1010.2 |
| 20260506231745 | 45 | 333 | 5.0 | 10.0 | 0.00 | 0.00 | 0.00 | 50 | 1010.2 |
| 20260506231244 | 46 | 345 | 3.0 | 13.0 | 0.00 | 0.00 | 0.00 | 50 | 1010.2 |
| 20260506230740 | 46 | 28 | 7.0 | 17.0 | 0.00 | 0.00 | 0.00 | 51 | 1010.2 |
| 20260506230237 | 46 | 313 | 4.0 | 11.0 | 0.00 | 0.00 | 0.00 | 50 | 1010.3 |
| 20260506225733 | 45 | 303 | 5.0 | 7.0 | 0.00 | 0.00 | 0.00 | 50 | 1010.2 |
| 20260506225231 | 45 | 354 | 4.0 | 8.0 | 0.00 | 0.00 | 0.00 | 50 | 1010.3 |
| 20260506224727 | 44 | 3 | 7.0 | 12.0 | 0.00 | 0.00 | 0.00 | 51 | 1010.4 |
| 20260506224224 | 44 | 319 | 9.0 | 11.0 | 0.00 | 0.00 | 0.00 | 51 | 1010.6 |
| 20260506223720 | 44 | 297 | 2.0 | 14.0 | 0.00 | 0.00 | 0.00 | 51 | 1010.3 |
| 20260506223216 | 45 | 305 | 8.0 | 15.0 | 0.00 | 0.00 | 0.00 | 49 | 1010.4 |
| 20260506222714 | 45 | 301 | 5.0 | 11.0 | 0.00 | 0.00 | 0.00 | 50 | 1010.5 |
| 20260506222208 | 44 | 295 | 5.0 | 14.0 | 0.00 | 0.00 | 0.00 | 51 | 1010.5 |
| 20260506221707 | 44 | 353 | 9.0 | 13.0 | 0.00 | 0.00 | 0.00 | 52 | 1010.4 |